Location: Bun
(42.9667°N, 0.1500°W)
Time: 04:29:08
(UTC+00:00)

CZ-4 R/B - Pass Details

Date: 03 February 2023
Orbit: 526 x 587 km, 97.7° (Epoch: 26 March)

Event Time Altitude Azimuth Distance (km) Brightness Sun altitude
Rises 18:02:31 0° 128° (SE) 2,801 4.6 -9.0°
Reaches altitude 10° 18:05:12 10° 109° (ESE) 1,899 3.6 -9.5°
Maximum altitude 18:08:01 18° 66° (ENE) 1,434 2.8 -10.0°
Drops below altitude 10° 18:10:50 10° 22° (NNE) 1,887 3.7 -10.5°
Sets 18:13:29 0° 4° (N) 2,778 4.7 -11.0°
